Regional Weather Roundup
Issued by NWS Grand Forks, ND

Home | Current Version | Previous Version | Text Only | Print | Product List | Glossary On
Versions: 1 2 3 4 5 6 7 8 9 10 11 12 13 14 15 16 17 18 19 20 21 22 23 24 25 26 27 28 29 30 31 32 33 34 35 36 37 38 39 40 41 42 43 44 45 46 47 48 49 50
000
ASUS43 KFGF 030631
RWRFGF
PRAIRIE TO PINES  WEATHER ROUNDUP
NATIONAL WEATHER SERVICE EASTERN NORTH DAKOTA/GRAND FORKS ND
100 AM CDT FRI JUL 03 2015

 **SATELLITE DATA USED TO AUGMENT SKY COVER AT AUTOMATED STATIONS**
 *****  WEATHER ACROSS EASTERN NORTH DAKOTA  *****

CITY           SKY/WX    TMP DP  RH WIND       PRES   REMARKS
GRAND FORKS    CLOUDY    67  65  93 W6        29.89S
6HR MIN TEMP:  67; 6HR MAX TEMP:  76;

GRAND FRKS AFB CLEAR     66  64  94 NW8       29.90S
GRAND FRKS NWS   N/A     66 N/A N/A W3          N/A
DEVILS LAKE    CLEAR     64  61  88 CALM      29.93S
6HR MIN TEMP:  66; 6HR MAX TEMP:  75;

FARGO          PTCLDY    65  56  72 S8        29.93R
WAHPETON ARPT  CLEAR     59  54  82 SW3       29.96S
$$

 ***** WEATHER ACROSS CENTRAL AND WESTERN NORTH DAKOTA  *****

CITY           SKY/WX    TMP DP  RH WIND       PRES   REMARKS
BISMARCK       CLOUDY    66  63  90 W3        29.99R FOG
6HR MIN TEMP:  65; 6HR MAX TEMP:  77;

MINOT          CLOUDY    65  61  87 SW6       29.97R FOG
6HR MIN TEMP:  65; 6HR MAX TEMP:  77;

JAMESTOWN      CLOUDY    66  62  87 NW5       29.95S FOG
6HR MIN TEMP:  65; 6HR MAX TEMP:  76;

MINOT AFB      CLEAR     63  63 100 W6        29.96S
GARRISON         N/A     64  61  90 NW6       29.99R
WILLISTON      CLEAR     67  62  84 CALM      30.02S
6HR MIN TEMP:  64; 6HR MAX TEMP:  83;

DICKINSON      CLEAR     61  58  90 S5        30.03S FOG
6HR MIN TEMP:  60; 6HR MAX TEMP:  79;

HETTINGER      PTCLDY    57  55  93 CALM      30.07R FOG
6HR MIN TEMP:  57; 6HR MAX TEMP:  78;

$$

 *****  OTHER AIRPORT OBSERVATIONS IN OUR AREA  *****

CITY           SKY/WX    TMP DP  RH WIND       PRES   REMARKS
WALHALLA       FAIR      64  64 100 MISG      29.91R FOG
GRAFTON AIRPOR FAIR      68  68 100 NW7       29.90S FOG
VALLEY CITY AR CLOUDY    64  64 100 SW7       29.95S
CANDO          MOCLDY    63  63 100 N6        29.95S FOG
CAVALIER APRT  FAIR      64  63  94 W3        29.90S FOG
GWINNER          N/A     64  63  94 SW10      29.96F
SHEYENNE NWR     N/A     63  61  94 SW3       29.95S
ROLLA          MOCLDY    61  61 100 NW8       29.98R FOG
 ***** THE ABOVE OBSERVATIONS ARE NON NWS ARE NOT QUALITY
       CONTROLLED AND MAY MIS-REPORT RAIN FOR SNOW...
$$

  *****  WEATHER ACROSS NORTHERN MINNESOTA  *****

CITY           SKY/WX    TMP DP  RH WIND       PRES   REMARKS
FLAG ISLAND    PTCLDY    68  63  83 W8        29.84R
WARROAD        FAIR      64  61  88 SW6       29.88S
ROSEAU         PTCLDY    66  61  82 SW3       29.88R
HALLOCK        CLEAR     64  63  94 NW6       29.88S FOG
THF RVR FALLS  PTCLDY    64  55  72 SW9       29.90F
6HR MIN TEMP:  64; 6HR MAX TEMP:  73;

BAUDETTE       CLOUDY    66  55  67 SW8       29.87S
6HR MIN TEMP:  66; 6HR MAX TEMP:  72;

WASKISH        MOCLDY    68  59  73 SW10G17   29.90S
CROOKSTON      CLEAR     64  59  82 S6        29.91S
$$
  *****  WEATHER ACROSS CENTRAL AND WEST MINNESOTA  *****

CITY           SKY/WX    TMP DP  RH WIND       PRES   REMARKS
FOSSTON        PTCLDY    61  54  77 S7        29.94S
BEMIDJI        PTCLDY    63  54  71 SW7       29.92F
PARK RAPIDS    CLEAR     61  52  72 S3        29.96R
6HR MIN TEMP:  59; 6HR MAX TEMP:  74;

ELBOW LAKE     FAIR      59  55  87 S5        29.97S
6HR MIN TEMP:  59; 6HR MAX TEMP:  72;

WADENA         CLEAR     57  52  82 CALM      29.97R
DETROIT LAKES  PTCLDY    64  54  68 SW9       29.96S
MOORHEAD       CLEAR     64  55  72 S6        29.94S
FERGUS FALLS   CLEAR     61  55  82 S5        29.97S
MORRIS MN      CLEAR     57  54  88 S5        29.97S
STAPLES        CLEAR     55  48  76 CALM      29.97R
$$
  *****  WEATHER ELSEWHERE ACROSS MINNESOTA  *****

CITY           SKY/WX    TMP DP  RH WIND       PRES   REMARKS
DULUTH         CLEAR     63  53  70 W8        29.94S
6HR MIN TEMP:  63; 6HR MAX TEMP:  74;

INTRNTL FALLS  PTCLDY    65  56  72 SW7       29.86F
6HR MIN TEMP:  65; 6HR MAX TEMP:  72;

ELY            MOCLDY    66  55  68 W9        29.90S
CLOQUET        CLEAR     63  54  72 W5        29.95S
WHEATON        CLEAR     59  54  82 S6        29.98S
BRAINERD       CLEAR     58  54  86 S3        29.97S
6HR MIN TEMP:  56; 6HR MAX TEMP:  74;

HIBBING        MOCLDY    60  56  86 CALM      29.93R
6HR MIN TEMP:  57; 6HR MAX TEMP:  74;

ALEXANDRIA     CLEAR     59  52  77 SW6       29.99F
6HR MIN TEMP:  58; 6HR MAX TEMP:  71;

SAINT CLOUD    CLEAR     57  55  93 CALM      29.98S
6HR MIN TEMP:  56; 6HR MAX TEMP:  74;

MINNEAPOLIS    CLEAR     67  55  65 S3        29.98S
6HR MIN TEMP:  65; 6HR MAX TEMP:  75;

$$

  *****  WEATHER ACROSS SOUTH DAKOTA  *****

CITY           SKY/WX    TMP DP  RH WIND       PRES   REMARKS
SIOUX FALLS    FOG       57  56  96 CALM      30.01S VSB 1/2
6HR MIN TEMP:  56; 6HR MAX TEMP:  70;

BROOKINGS      CLEAR     55  52  88 CALM      30.03S
WATERTOWN      CLEAR     58  54  86 SW6       30.01R
6HR MIN TEMP:  56; 6HR MAX TEMP:  73;

HURON          CLEAR     61  58  90 S3        30.00R
6HR MIN TEMP:  61; 6HR MAX TEMP:  70; 6HR PCP: TRACE;

SISSETON         N/A     59  55  87 S6        29.96S
ABERDEEN       CLEAR     63  61  93 SW8       29.98S
6HR MIN TEMP:  60; 6HR MAX TEMP:  72;

MITCHELL       CLEAR     61  58  90 CALM      30.01R
PIERRE         CLEAR     64  63  96 S5        29.99S
6HR MIN TEMP:  63; 6HR MAX TEMP:  78;

MOBRIDGE       CLEAR     68  66  93 NW7       29.97S FOG
RAPID CITY     MOCLDY    62  58  86 NW6       30.10S
6HR MIN TEMP:  62; 6HR MAX TEMP:  78;

$$

  *****  SOME WEATHER IN NEARBY STATES *****

CITY           SKY/WX    TMP DP  RH WIND       PRES   REMARKS
GLASGOW MT     CLEAR     65  54  67 VRB3      30.03S HAZE
6HR MIN TEMP:  65; 6HR MAX TEMP:  82;

GREAT FALLS MT PTCLDY    70  49  47 E8        30.05F
6HR MIN TEMP:  70; 6HR MAX TEMP:  85;

CHEYENNE WY    MOCLDY    64  53  67 CALM      30.25F
6HR MIN TEMP:  63; 6HR MAX TEMP:  78;

SCOTTSBLUFF NE   N/A     68  59  73 VRB3      30.14S
6HR MIN TEMP:  68; 6HR MAX TEMP:  83;

OMAHA NE       CLOUDY    64  56  75 E5        29.99S
6HR MIN TEMP:  64; 6HR MAX TEMP:  71; 6HR PCP: TRACE;

DES MOINES IA  CLOUDY    63  56  78 NE3       29.99S
6HR MIN TEMP:  63; 6HR MAX TEMP:  68;

DAVENPORT IA   CLOUDY    60  56  86 E5        29.99R
6HR MIN TEMP:  60; 6HR MAX TEMP:  68;

CHICAGO IL     CLOUDY    57  48  72 N3        30.00S
6HR MIN TEMP:  57; 6HR MAX TEMP:  63;

EAU CLAIRE WI  CLEAR     58  56  93 CALM      29.98S
6HR MIN TEMP:  57; 6HR MAX TEMP:  75;

LA CROSSE WI   PTCLDY    59  56  89 SE5       30.00R
6HR MIN TEMP:  59; 6HR MAX TEMP:  74;

$$

  *****  SOME NATIONAL WEATHER *****

CITY           SKY/WX    TMP DP  RH WIND       PRES   REMARKS
LA GUARDIA NY  PTCLDY    71  62  73 NW7       29.89R
6HR MIN TEMP:  71; 6HR MAX TEMP:  75; 6HR PCP: TRACE;

RALEIGH NC     MOCLDY    72  70  93 N3        29.93S FOG
6HR MIN TEMP:  72; 6HR MAX TEMP:  73; 6HR PCP: TRACE;

ATLANTA GA     PTCLDY    75  72  88 SW7       29.98F
6HR MIN TEMP:  77; 6HR MAX TEMP:  82; 6HR PCP: TRACE;

NEW ORLEANS LA PTCLDY    80  74  81 SW8       30.04S
6HR MIN TEMP:  79; 6HR MAX TEMP:  86;

OKLAHOMA CITY  TSTM      73  71  93 NE18G24   29.95R
6HR MIN TEMP:  71; 6HR MAX TEMP:  85; 6HR PCP:  1.32;

ALBUQUERQUE NM CLOUDY    72  59  63 N10       30.20R
6HR MIN TEMP:  70; 6HR MAX TEMP:  79; 6HR PCP:  0.05;

SALT LAKE CITY MOCLDY    80  49  33 S5        29.97F
6HR MIN TEMP:  80; 6HR MAX TEMP:  98;

LOS ANGELES CA MOCLDY    65  62  90 SW8       29.95F
6HR MIN TEMP:  65; 6HR MAX TEMP:  72;



USA.gov is the U.S. government's official web portal to all federal, state and local government web resources and services.